Regional Weather Roundup
Issued by NWS

Home | Current Version | Previous Version | Graphics & Text | Print | Product List | Glossary On
Versions: 1 2 3 4 5 6 7 8 9 10 11 12 13 14 15 16 17 18 19 20 21 22 23 24 25 26 27 28 29 30 31 32 33 34 35 36 37 38 39 40 41 42 43 44 45 46 47 48 49 50
000
ASUS43 KMKX 291259
RWRWI

WISCONSIN REGIONAL WEATHER ROUNDUP
NATIONAL WEATHER SERVICE MILWAUKEE/SULLIVAN WI
800 AM CDT SUN MAR 29 2015

NOTE: "FAIR" INDICATES FEW OR NO CLOUDS BELOW 12,000 FEET WITH NO
SIGNIFICANT WEATHER AND/OR OBSTRUCTIONS TO VISIBILITY.

WIZ001-002-006>008-014>016-023>028-291400-
NORTHWEST WISCONSIN

CITY           SKY/WX    TMP DP  RH WIND       PRES   REMARKS
SUPERIOR ARPT  CLOUDY    36  29  75 SW20G25   29.53F WCI  26
ASHLAND        CLOUDY    34  25  69 S17G28    29.58F WCI  23
HAYWARD        CLOUDY    33  27  78 S18G26    29.62F WCI  22
SIREN          CLOUDY    35  30  82 S15G24    29.61F WCI  25
CUMBERLAND     CLOUDY    32  28  86 S10       29.65F WCI  24
RICE LAKE      CLOUDY    33  29  86 S14       29.69F WCI  23
CHETEK         MIX PCPN  32  29  88 S12G22    29.69F WCI  23
LADYSMITH      LGT RAIN  32  27  82 S13G20    29.71F WCI  22
EAU CLAIRE     CLOUDY    32  27  81 S13       29.71F WCI  22
MENOMONIE      CLOUDY    33  32  98 S12G17    29.71F WCI  24
NEW RICHMOND   PTSUNNY   33  30  89 S13       29.65F WCI  24
OSCEOLA        CLOUDY    34  33  95 S13       29.67F WCI  25
$$

WIZ003>005-009-010-017-018-291400-
NORTH CENTRAL WISCONSIN

CITY           SKY/WX    TMP DP  RH WIND       PRES   REMARKS
MANITOWISH WTR MIX PCPN  31  20  63 S16G23    29.66F WCI  20
ARBOR VITAE    CLOUDY    32  18  57 S21       29.68F WCI  20
WOODRUFF       CLOUDY    32  18  57 S21       29.68F WCI  20
RHINELANDER    CLOUDY    32  17  54 S22G32    29.71F WCI  19
EAGLE RIVER    CLOUDY    31  15  51 S10G23    29.69F WCI  23
LAND O LAKES   CLOUDY    32  17  54 S10G22    29.68F WCI  23
PHILLIPS       FLURRIES  31  25  80 S16G24    29.68F WCI  20
TOMAHAWK       PTSUNNY   30  17  58 S7        29.75F WCI  23
MEDFORD        MIX PCPN  30  23  75 S22       29.73F WCI  17
MERRILL        PTSUNNY   31  17  56 S9        29.78F WCI  23
$$

WIZ029-030-035-036-043>047-291400-
CENTRAL WISCONSIN

CITY           SKY/WX    TMP DP  RH WIND       PRES   REMARKS
WAUSAU         PTSUNNY   31  17  56 S17       29.78F WCI  19
MOSINEE        PTSUNNY   30  18  59 S16G23    29.81F WCI  19
MARSHFIELD     MIX PCPN  32  21  64 S16       29.77F WCI  21
STEVENS POINT  CLOUDY    30  16  56 S15       29.84F WCI  19
WAUPACA        MOSUNNY   33  18  55 S9        29.92F WCI  25
WAUTOMA        NOT AVBL
WISC RAPIDS    CLOUDY    33  16  49 S12       29.83F WCI  24
CAMP DOUGLAS   LGT RAIN  34  23  64 SE16G22   29.82F WCI  23
$$

WIZ011>013-019>022-031-037>040-048>050-291400-
NORTHEAST WISCONSIN

CITY           SKY/WX    TMP DP  RH WIND       PRES   REMARKS
ANTIGO         CLOUDY    28  17  63 S17G23    29.81F WCI  16
SHAWANO        PTSUNNY   32  19  57 S7        29.90F WCI  26
OCONTO         PTSUNNY   32  18  56 S15G21    29.92F WCI  22
STURGEON BAY   PTSUNNY   30  16  55 S17       29.94F WCI  18
GREEN BAY      PTSUNNY   33  20  58 S14       29.93F WCI  23
MANITOWOC      NOT AVBL
APPLETON       PTSUNNY   30  18  59 S21       29.92F WCI  17
CLINTONVILLE   PTSUNNY   30  19  64 S14G21    29.90F WCI  20
OSHKOSH        MOSUNNY   31  18  58 S18G30    29.95F WCI  19
$$

WIZ032>034-041-042-053>061-291400-
SOUTHWEST WISCONSIN

CITY           SKY/WX    TMP DP  RH WIND       PRES   REMARKS
LA CROSSE      CLOUDY    35  28  75 S24G36    29.79F WCI  23
SPARTA         MIX PCPN  33  27  78 S13G18    29.82F WCI  24
VIROQUA        CLOUDY    32  28  86 S13G20    29.81F WCI  22
BOSCOBEL       FRZ RAIN  34  27  75 S12G23    29.88F WCI  25
PRAIRIE DU CHI MIX PCPN  34  26  71 SE10G22   29.87F WCI  26
PLATTEVILLE    CLOUDY    32  23  68 SE16G28   29.94F WCI  21
$$

WIZ056-057-062-063-064-067-068-291400-
SOUTH CENTRAL WISCONSIN

CITY           SKY/WX    TMP DP  RH WIND       PRES   REMARKS
REEDSBURG      CLOUDY    32  20  62 S14       29.90F WCI  22
BARABOO/DELLS  CLOUDY    32  19  59 S20       29.90R WCI  20
LONE ROCK      NOT AVBL
MINERAL POINT  CLOUDY    32  23  69 S16G23    29.92F WCI  21
MADISON        CLOUDY    32  19  58 S16G23    29.96F WCI  21
MIDDLETON      PTSUNNY   33  19  56 S15G24    29.98S WCI  23
WATERTOWN      MOSUNNY   30  19  62 S14G21    29.97F WCI  20
MONROE         MOSUNNY   32  23  69 S22G30    29.98S WCI  19
JANESVILLE     MOSUNNY   34  18  51 S18G24    30.02F WCI  23
$$

WIZ051-052-058>065-066-070>072-291400-
SOUTHEAST WISCONSIN

CITY           SKY/WX    TMP DP  RH WIND       PRES   REMARKS
MILWAUKEE      PTSUNNY   33  15  47 S13       30.05F WCI  24
WAUKESHA       SUNNY     30  16  55 S12G23    30.02F WCI  21
MILWAUKEE/TIMM SUNNY     32  14  47 S13G18    30.03F WCI  22
RACINE         PTSUNNY   34  15  46 S14G22    30.08F WCI  25
BURLINGTON     MOSUNNY   31  16  55 S14G20    30.05F WCI  20
KENOSHA        PTSUNNY   34  17  50 S15       30.07F WCI  24
FOND DU LAC    PTSUNNY   32  18  56 S20G35    29.95F WCI  20
SHEBOYGAN      PTSUNNY   31  17  56 S18       29.98F WCI  19
WEST BEND      PTSUNNY   30  16  55 S12       30.00F WCI  21
JUNEAU         MOSUNNY   30  18  62 SE17      29.96F WCI  18
$$

LSZ147-162-291400-
LAKE SUPERIOR

STATION/POSITION TIME  TEMP    WIND        PRES    WAVE
                       AIR SEA DIR/SP/G            HT/PER
                 (UTC) (F)     (DEG/KT/KT) (MB)    (FT/S)
DEVILS ISLAND    1200   36     190/ 10/ 13 1002.5F
PORT WING        1220   36     190/ 19     1001.4F
SAXON HARBOR     1201   38     190/ 17     1002.0F
$$

LMZ867-665-643>646-291400-
LAKE MICHIGAN

STATION/POSITION TIME  TEMP    WIND        PRES    WAVE
                       AIR SEA DIR/SP/G            HT/PER
                 (UTC) (F)     (DEG/KT/KT) (MB)    (FT/S)
NORTHPORT PIER   1200   33     170/  6/ 14 1015.2F
SISTER BAY       1217   34     200/ 22/ 26   N/A
KEWAUNEE LAKESHO 1212   31     200/ 13/ 19 1015.7F
SHEBOYGAN LAKESH 1200   32     190/ 20/ 24 1018.6R
PORT WASHINGTON  1220   33     200/ 10/ 17 1018.6F
MILWAUKEE LAKESH 1200   32     210/ 13/ 15   N/A
KENOSHA   LAKESH 1200   32     210/ 12/ 17 1019.6R
$$

TC  - TEMPERATURE IN CELSIUS
VSB - VISIBILITY IN STATUTE MILES
WCI - WIND CHILL INDEX
HX  - HEAT INDEX




USA.gov is the U.S. government's official web portal to all federal, state and local government web resources and services.